This demonstration page uses our WeatherBlox Daily Observations layout. Learn more.

Left ArrowRight Arrow

39.51506, -84.39828

Hourly Observations for June 5, 2022

Temp ( °F °C ) Dew Point ( °F °C ) Humidity (%) Winds ( mph kmh ) Pressure ( in mb ) Visibility ( mi km ) Precip ( " mm )
12:15 am 00:15 Clear 59 14.9 51 10.5 75 75 NNW 7 11 29.93 1013 10 16 0.00 0.00
12:35 am 00:35 Clear 57 14.1 52 11.3 83 83 NW 5 7 29.94 1014 10 16 0.00 0.00
12:55 am 00:55 Clear 59 14.8 51 10.6 76 76 NNW 3 6 29.93 1013 10 16 0.00 0.00
1:15 am 01:15 Clear 57 13.8 51 10.4 80 80 NNW 5 7 29.93 1014 10 16 0.00 0.00
1:35 am 01:35 Clear 57 13.7 51 10.6 82 82 NNW 3 6 29.93 1014 10 16 0.00 0.00
1:55 am 01:55 Clear 56 13.1 51 10.6 85 85 NNW 3 6 29.92 1013 10 16 0.00 0.00
2:15 am 02:15 Clear 55 12.9 53 11.5 91 91 N 3 6 29.92 1013 10 16 0.00 0.00
2:35 am 02:35 Clear 55 12.9 51 10.3 84 84 Calm 29.92 1013 10 16 0.00 0.00
2:55 am 02:55 Clear 55 12.6 51 10.3 86 86 N 3 6 29.92 1013 10 16 0.00 0.00
3:15 am 03:15 Clear 55 12.5 52 11.1 91 91 N 3 6 29.92 1013 10 16 0.00 0.00
3:35 am 03:35 Clear 56 13.4 51 10.8 84 84 NNE 3 6 29.93 1014 10 16 0.00 0.00
3:55 am 03:55 Clear 55 12.7 52 11.3 91 91 Calm 29.92 1013 10 16 0.00 0.00
4:15 am 04:15 Clear 55 12.6 51 10.6 88 88 NNW 3 6 29.92 1013 10 16 0.00 0.00
4:35 am 04:35 Clear 54 12.4 51 10.8 90 90 N 5 7 29.93 1014 10 16 0.00 0.00
4:55 am 04:55 Clear 54 12.3 51 10.8 91 91 Calm 29.93 1014 10 16 0.00 0.00
5:15 am 05:15 Clear 54 12.2 52 11.1 93 93 N 3 6 29.93 1014 10 16 0.00 0.00
5:35 am 05:35 Clear 55 12.5 51 10.8 89 89 NNE 5 7 29.94 1014 10 16 0.00 0.00
5:55 am 05:55 Clear 55 12.9 50 10.2 84 84 N 3 6 29.94 1014 10 16 0.00 0.00
6:15 am 06:15 Sunny 55 12.5 51 10.3 87 87 N 3 6 29.94 1014 10 16 0.00 0.00
6:35 am 06:35 Sunny 55 12.6 51 10.6 88 88 Calm 29.94 1014 10 16 0.00 0.00
6:55 am 06:55 Sunny 55 12.5 53 11.5 94 94 Calm 29.95 1014 10 16 0.00 0.00
7:15 am 07:15 Sunny 56 13.2 53 11.9 92 92 Calm 29.95 1014 10 16 0.00 0.00
7:35 am 07:35 Sunny 59 14.9 55 12.5 86 86 Calm 29.96 1014 10 16 0.00 0.00
7:55 am 07:55 Sunny 62 16.7 53 11.8 73 73 Calm 29.95 1014 10 16 0.00 0.00
8:15 am 08:15 Sunny 64 17.8 52 11.3 66 66 NE 3 6 29.95 1014 10 16 0.00 0.00
8:35 am 08:35 Sunny 65 18.5 51 10.4 59 59 Calm 29.96 1014 10 16 0.00 0.00
8:55 am 08:55 Sunny 67 19.4 49 9.3 52 52 ESE 6 9 29.95 1014 10 16 0.00 0.00
9:15 am 09:15 Sunny 69 20.3 48 8.9 48 48 ESE 6 9 29.94 1014 10 16 0.00 0.00
9:35 am 09:35 Sunny 69 20.6 49 9.7 50 50 E 5 7 29.94 1014 10 16 0.00 0.00
9:55 am 09:55 Sunny 70 21.3 49 9.7 48 48 ESE 6 9 29.93 1014 10 16 0.00 0.00
10:15 am 10:15 Sunny 70 20.9 50 9.9 50 50 SE 6 9 29.93 1014 10 16 0.00 0.00
10:35 am 10:35 Sunny 72 22.1 51 10.5 48 48 SSE 6 9 29.93 1014 10 16 0.00 0.00
10:55 am 10:55 Sunny 74 23.2 53 11.6 48 48 SSE 3 6 29.93 1013 10 16 0.00 0.00
11:15 am 11:15 Sunny 74 23.5 52 11.3 46 46 ESE 6 9 29.93 1013 10 16 0.00 0.00
11:35 am 11:35 Sunny 75 23.9 51 10.8 44 44 Calm 29.93 1013 10 16 0.00 0.00
11:55 am 11:55 Sunny 77 25 56 13.1 48 48 SSE 3 6 29.91 1013 10 16 0.00 0.00
12:15 pm 12:15 Sunny 78 25.6 54 12.1 43 43 SSE 6 9 29.91 1013 10 16 0.00 0.00
12:35 pm 12:35 Sunny 79 25.9 54 12.4 43 43 SSE 8 13 29.90 1013 10 16 0.00 0.00
12:55 pm 12:55 Sunny 79 26.1 53 11.5 40 40 S 8 13 29.90 1013 10 16 0.00 0.00
1:15 pm 13:15 Sunny 80 26.5 52 11 38 38 SSE 7 11 29.89 1012 10 16 0.00 0.00
1:35 pm 13:35 Sunny 80 26.8 51 10.7 37 37 SSW 6 9 29.89 1012 10 16 0.00 0.00
1:55 pm 13:55 Partly Cloudy 80 26.5 50 9.9 35 35 ESE 9 15 29.89 1012 10 16 0.00 0.00
2:15 pm 14:15 Mostly Cloudy 80 26.6 51 10.3 36 36 E 8 13 29.88 1012 10 16 0.00 0.00
2:35 pm 14:35 Mostly Cloudy 81 27.2 51 10.4 35 35 ESE 10 17 29.88 1012 10 16 0.00 0.00
2:55 pm 14:55 Partly Cloudy 79 26.3 47 8.1 32 32 SSE 5 7 29.87 1012 10 16 0.00 0.00
3:15 pm 15:15 Partly Cloudy 82 27.5 52 11.2 36 36 S 8 13 29.87 1011 10 16 0.00 0.00
3:35 pm 15:35 Partly Cloudy 82 27.7 51 10.6 34 34 SSE 7 11 29.86 1011 10 16 0.00 0.00
3:55 pm 15:55 Mostly Cloudy 82 27.9 50 10.2 33 33 ESE 7 11 29.85 1011 10 16 0.00 0.00
4:15 pm 16:15 Mostly Cloudy 81 27.2 52 11 36 36 ESE 10 17 29.85 1011 10 16 0.00 0.00
4:35 pm 16:35 Mostly Cloudy 82 27.7 51 10.5 34 34 ESE 10 17 29.84 1010 10 16 0.00 0.00
4:55 pm 16:55 Partly Cloudy 83 28.3 53 11.4 35 35 E 9 15 29.83 1010 10 16 0.00 0.00
5:15 pm 17:15 Mostly Cloudy 82 28 51 10.4 33 33 SE 9 15 29.83 1010 10 16 0.00 0.00
5:35 pm 17:35 Mostly Cloudy 81 27 49 9.7 34 34 E 5 7 29.84 1010 10 16 0.00 0.00
5:55 pm 17:55 Mostly Cloudy 81 27 50 10 34 34 SE 6 9 29.82 1010 10 16 0.00 0.00
6:15 pm 18:15 Mostly Cloudy 82 27.5 51 10.3 34 34 SE 9 15 29.82 1010 10 16 0.00 0.00
6:35 pm 18:35 Partly Cloudy 82 27.7 50 10 33 33 ESE 8 13 29.82 1010 10 16 0.00 0.00
6:55 pm 18:55 Partly Cloudy 80 26.9 50 9.8 34 34 SE 7 11 29.82 1010 10 16 0.00 0.00
7:15 pm 19:15 Partly Cloudy 80 26.6 49 9.4 34 34 ESE 12 19 29.82 1010 10 16 0.00 0.00
7:35 pm 19:35 Partly Cloudy 79 26.1 49 9.6 35 35 S 5 7 29.82 1010 10 16 0.00 0.00
7:55 pm 19:55 Partly Cloudy 79 26.1 50 10 36 36 SSE 7 11 29.82 1010 10 16 0.00 0.00
8:15 pm 20:15 Mostly Cloudy 79 26.3 49 9.4 34 34 SSE 9 15 29.82 1010 10 16 0.00 0.00
8:35 pm 20:35 Partly Cloudy 78 25.5 49 9.6 37 37 SSE 8 13 29.83 1010 10 16 0.00 0.00
8:55 pm 20:55 Sunny 77 25 50 9.8 38 38 E 5 7 29.84 1011 10 16 0.00 0.00
9:15 pm 21:15 Clear 74 23.6 52 11.1 45 45 E 5 7 29.84 1010 10 16 0.00 0.00
9:35 pm 21:35 Clear 69 20.6 59 14.8 70 70 N 3 6 29.84 1011 10 16 0.00 0.00
9:55 pm 21:55 Clear 67 19.7 58 14.7 73 73 NW 3 6 29.85 1011 10 16 0.00 0.00
10:15 pm 22:15 Hazy 65 18.5 58 14.3 77 77 Calm 29.86 1011 4 6 0.00 0.00
10:35 pm 22:35 Mostly Cloudy 65 18.4 59 15 81 81 Calm 29.86 1011 10 16 0.00 0.00
10:55 pm 22:55 Mostly Cloudy 69 20.4 57 13.7 66 66 Calm 29.85 1011 10 16 0.00 0.00
11:15 pm 23:15 Partly Cloudy 65 18.4 59 15 81 81 NNW 3 6 29.86 1011 10 16 0.00 0.00
11:35 pm 23:35 Partly Cloudy 64 17.8 58 14.7 82 82 N 5 7 29.86 1011 10 16 0.00 0.00
11:55 pm 23:55 Clear 64 17.5 58 14.2 81 81 N 5 7 29.86 1011 10 16 0.00 0.00

Powered by AerisWeather